Total_Precipitation_Accumulation
0.00 0.00 0.00 0.00 0.00 0.00 0.00 0.00 0.01 0.03 0.01 0.01 0.00 0.00 0.00 0.00 0.02 0.03 0.05 0.07 0.09 0.12 0.15 0.18 0.19 0.19 0.20
0.00 0.00 0.00 0.00 0.00 0.00 0.00 0.01 0.01 0.00 0.00 0.00 0.00 0.00 0.00 0.01 0.02 0.03 0.04 0.05 0.06 0.08 0.10 0.11 0.11 0.12 0.12
0.00 0.00 0.00 0.00 0.00 0.00 0.00 0.00 0.00 0.00 0.00 0.00 0.00 0.00 0.00 0.01 0.01 0.01 0.03 0.04 0.04 0.05 0.06 0.08 0.09 0.10 0.11
0.03 0.05 0.04 0.02 0.00 0.00 0.00 0.00 0.00 0.00 0.00 0.00 0.00 0.00 0.00 0.00 0.00 0.00 0.00 0.01 0.01 0.01 0.01 0.02 0.03 0.02 0.02
0.14 0.07 0.02 0.00 0.00 0.00 0.00 0.01 0.00 0.00 0.00 0.00 0.00 0.00 0.00 0.00 0.00 0.00 0.00 0.01 0.01 0.02 0.02 0.04 0.06 0.06 0.05
0.05 0.02 0.00 0.00 0.00 0.01 0.05 0.05 0.03 0.00 0.00 0.00 0.00 0.00 0.00 0.00 0.00 0.00 0.00 0.01 0.01 0.02 0.03 0.05 0.06 0.07 0.08
0.01 0.00 0.00 0.02 0.10 0.08 0.03 0.03 0.02 0.00 0.01 0.02 0.00 0.00 0.00 0.00 0.00 0.00 0.00 0.00 0.01 0.01 0.02 0.04 0.05 0.05 0.05
0.00 0.00 0.03 0.04 0.04 0.04 0.03 0.04 0.01 0.00 0.00 0.03 0.00 0.00 0.00 0.00 0.00 0.00 0.00 0.00 0.01 0.01 0.02 0.04 0.05 0.06 0.07
0.02 0.01 0.01 0.00 0.00 0.05 0.05 0.06 0.03 0.00 0.00 0.01 0.00 0.00 0.00 0.00 0.00 0.00 0.00 0.00 0.00 0.01 0.02 0.03 0.05 0.07 0.08
0.01 0.00 0.00 0.00 0.00 0.01 0.05 0.16 0.05 0.06 0.00 0.08 0.03 0.03 0.10 0.00 0.00 0.00 0.00 0.00 0.00 0.00 0.01 0.05 0.07 0.12 0.15
0.00 0.00 0.00 0.00 0.00 0.00 0.01 0.17 0.23 0.13 0.00 0.19 0.16 0.02 0.10 0.02 0.00 0.00 0.00 0.00 0.01 0.00 0.04 0.09 0.14 0.22 0.34
0.00 0.00 0.00 0.00 0.00 0.00 0.00 0.01 0.07 0.18 0.06 0.10 0.27 0.10 0.16 0.07 0.01 0.00 0.00 0.00 0.01 0.03 0.03 0.04 0.06 0.13 0.25
0.01 0.01 0.00 0.01 0.00 0.00 0.01 0.00 0.00 0.01 0.01 0.01 0.12 0.10 0.15 0.18 0.12 0.02 0.07 0.03 0.00 0.03 0.09 0.14 0.23 0.29 0.29
0.01 0.01 0.00 0.00 0.00 0.01 0.02 0.01 0.02 0.00 0.00 0.00 0.04 0.15 0.17 0.07 0.16 0.09 0.04 0.13 0.12 0.13 0.12 0.17 0.22 0.19 0.13
0.02 0.01 0.01 0.01 0.00 0.00 0.02 0.03 0.03 0.01 0.00 0.00 0.00 0.02 0.05 0.05 0.04 0.02 0.06 0.08 0.14 0.15 0.18 0.21 0.12 0.08 0.02
0.01 0.01 0.03 0.02 0.02 0.01 0.01 0.02 0.04 0.01 0.02 0.01 0.01 0.01 0.00 0.00 0.02 0.10 0.08 0.10 0.10 0.11 0.13 0.21 0.09 0.04 0.01
0.02 0.02 0.05 0.04 0.02 0.02 0.01 0.02 0.01 0.01 0.01 0.01 0.02 0.06 0.06 0.01 0.00 0.04 0.17 0.11 0.08 0.12 0.12 0.19 0.18 0.07 0.04